owner,sensor,date,latitude,longitude,vertical_datum,wind_speed,wind_to_direction,wind_speed_of_gust,qcFlag 
COMPS,ioos:station:USF.COMPS:SHP:1,2019-02-01T00:00:00Z,30.0600,-84.2910,10.0,1.11,54.58,2.15,'1111122,1111122,1111122' 
COMPS,ioos:station:USF.COMPS:SHP:1,2019-02-01T00:06:00Z,30.0600,-84.2910,10.0,1.26,46.18,1.86,'1111122,1111122,1111122' 
COMPS,ioos:station:USF.COMPS:SHP:1,2019-02-01T00:12:00Z,30.0600,-84.2910,10.0,1.24,50.79,1.96,'1111122,1111122,1111122' 
COMPS,ioos:station:USF.COMPS:SHP:1,2019-02-01T00:18:00Z,30.0600,-84.2910,10.0,1.4,51.73,2.25,'1111122,1111122,1111122' 
COMPS,ioos:station:USF.COMPS:SHP:1,2019-02-01T00:24:00Z,30.0600,-84.2910,10.0,1.3,47.72,2.45,'1111122,1111122,1111122' 
COMPS,ioos:station:USF.COMPS:SHP:1,2019-02-01T00:30:00Z,30.0600,-84.2910,10.0,1.57,47.2,2.64,'1111122,1111122,1111122' 
COMPS,ioos:station:USF.COMPS:SHP:1,2019-02-01T00:36:00Z,30.0600,-84.2910,10.0,1.36,53.47,2.35,'1111122,1111122,1111122' 
COMPS,ioos:station:USF.COMPS:SHP:1,2019-02-01T00:42:00Z,30.0600,-84.2910,10.0,1.36,58.53,2.15,'1111122,1111122,1111122' 
COMPS,ioos:station:USF.COMPS:SHP:1,2019-02-01T00:48:00Z,30.0600,-84.2910,10.0,1.35,51.07,2.54,'1111122,1111122,1111122' 
COMPS,ioos:station:USF.COMPS:SHP:1,2019-02-01T00:54:00Z,30.0600,-84.2910,10.0,1.44,53.8,2.84,'1111122,1111122,1111122' 
COMPS,ioos:station:USF.COMPS:SHP:1,2019-02-01T01:00:00Z,30.0600,-84.2910,10.0,1.43,51.36,2.25,'1111122,1111122,1111122' 
COMPS,ioos:station:USF.COMPS:SHP:1,2019-02-01T01:06:00Z,30.0600,-84.2910,10.0,1.44,53.12,2.64,'1111122,1111122,1111122' 
COMPS,ioos:station:USF.COMPS:SHP:1,2019-02-01T01:12:00Z,30.0600,-84.2910,10.0,1.39,51.35,2.35,'1111122,1111122,1111122' 
COMPS,ioos:station:USF.COMPS:SHP:1,2019-02-01T01:18:00Z,30.0600,-84.2910,10.0,1.6,51.21,2.74,'1111122,1111122,1111122' 
COMPS,ioos:station:USF.COMPS:SHP:1,2019-02-01T01:24:00Z,30.0600,-84.2910,10.0,1.45,53.35,2.74,'1111122,1111122,1111122' 
COMPS,ioos:station:USF.COMPS:SHP:1,2019-02-01T01:30:00Z,30.0600,-84.2910,10.0,1.67,52.08,2.84,'1111122,1111122,1111122' 
COMPS,ioos:station:USF.COMPS:SHP:1,2019-02-01T01:36:00Z,30.0600,-84.2910,10.0,1.47,52.47,2.74,'1111122,1111122,1111122' 
COMPS,ioos:station:USF.COMPS:SHP:1,2019-02-01T01:42:00Z,30.0600,-84.2910,10.0,1.28,54.57,3.03,'1111122,1111122,1111122' 
COMPS,ioos:station:USF.COMPS:SHP:1,2019-02-01T01:48:00Z,30.0600,-84.2910,10.0,1.42,54.78,2.74,'1111122,1111122,1111122' 
COMPS,ioos:station:USF.COMPS:SHP:1,2019-02-01T01:54:00Z,30.0600,-84.2910,10.0,1.52,50.47,2.54,'1111122,1111122,1111122' 
COMPS,ioos:station:USF.COMPS:SHP:1,2019-02-01T02:00:00Z,30.0600,-84.2910,10.0,1.72,49.95,3.62,'1111122,1111122,1111122' 
COMPS,ioos:station:USF.COMPS:SHP:1,2019-02-01T02:06:00Z,30.0600,-84.2910,10.0,1.48,49.3,2.74,'1111122,1111122,1111122' 
COMPS,ioos:station:USF.COMPS:SHP:1,2019-02-01T02:12:00Z,30.0600,-84.2910,10.0,1.42,53.71,2.94,'1111122,1111122,1111122' 
COMPS,ioos:station:USF.COMPS:SHP:1,2019-02-01T02:18:00Z,30.0600,-84.2910,10.0,1.33,49.76,2.94,'1111122,1111122,1111122' 
COMPS,ioos:station:USF.COMPS:SHP:1,2019-02-01T02:24:00Z,30.0600,-84.2910,10.0,1.44,55.21,3.52,'1111122,1111122,1111122' 
COMPS,ioos:station:USF.COMPS:SHP:1,2019-02-01T02:30:00Z,30.0600,-84.2910,10.0,1.52,48.89,3.52,'1111122,1111122,1111122' 
COMPS,ioos:station:USF.COMPS:SHP:1,2019-02-01T02:36:00Z,30.0600,-84.2910,10.0,1.73,52.8,3.43,'1111122,1111122,1111122' 
COMPS,ioos:station:USF.COMPS:SHP:1,2019-02-01T02:42:00Z,30.0600,-84.2910,10.0,1.35,57.14,2.84,'1111122,1111122,1111122' 
COMPS,ioos:station:USF.COMPS:SHP:1,2019-02-01T02:48:00Z,30.0600,-84.2910,10.0,1.12,54.52,2.35,'1111122,1111122,1111122' 
COMPS,ioos:station:USF.COMPS:SHP:1,2019-02-01T02:54:00Z,30.0600,-84.2910,10.0,1.37,65.81,2.74,'1111122,1111122,1111122' 
COMPS,ioos:station:USF.COMPS:SHP:1,2019-02-01T03:00:00Z,30.0600,-84.2910,10.0,1.38,45.25,3.33,'1111122,1111122,1111122' 
COMPS,ioos:station:USF.COMPS:SHP:1,2019-02-01T03:06:00Z,30.0600,-84.2910,10.0,1.3,50.05,3.72,'1111122,1111122,1111122' 
COMPS,ioos:station:USF.COMPS:SHP:1,2019-02-01T03:12:00Z,30.0600,-84.2910,10.0,1.45,45.25,2.74,'1111122,1111122,1111122' 
COMPS,ioos:station:USF.COMPS:SHP:1,2019-02-01T03:18:00Z,30.0600,-84.2910,10.0,2.13,33.35,3.52,'1111122,1111122,1111122' 
COMPS,ioos:station:USF.COMPS:SHP:1,2019-02-01T03:24:00Z,30.0600,-84.2910,10.0,1.84,47.75,3.52,'1111122,1111122,1111122' 
COMPS,ioos:station:USF.COMPS:SHP:1,2019-02-01T03:30:00Z,30.0600,-84.2910,10.0,1.72,50.66,3.52,'1111122,1111122,1111122' 
COMPS,ioos:station:USF.COMPS:SHP:1,2019-02-01T03:36:00Z,30.0600,-84.2910,10.0,1.7,59.8,3.82,'1111122,1111122,1111122' 
COMPS,ioos:station:USF.COMPS:SHP:1,2019-02-01T03:42:00Z,30.0600,-84.2910,10.0,1.76,49.55,3.03,'1111122,1111122,1111122' 
COMPS,ioos:station:USF.COMPS:SHP:1,2019-02-01T03:48:00Z,30.0600,-84.2910,10.0,1.6,45.17,4.5,'1111122,1111122,1111122' 
COMPS,ioos:station:USF.COMPS:SHP:1,2019-02-01T03:54:00Z,30.0600,-84.2910,10.0,1.48,55.88,3.03,'1111122,1111122,1111122' 
COMPS,ioos:station:USF.COMPS:SHP:1,2019-02-01T04:00:00Z,30.0600,-84.2910,10.0,1.28,48.32,2.74,'1111122,1111122,1111122' 
COMPS,ioos:station:USF.COMPS:SHP:1,2019-02-01T04:06:00Z,30.0600,-84.2910,10.0,1.46,53.07,2.64,'1111122,1111122,1111122' 
COMPS,ioos:station:USF.COMPS:SHP:1,2019-02-01T04:12:00Z,30.0600,-84.2910,10.0,1.35,63.58,2.35,'1111122,1111122,1111122' 
COMPS,ioos:station:USF.COMPS:SHP:1,2019-02-01T04:18:00Z,30.0600,-84.2910,10.0,1.26,55.01,3.03,'1111122,1111122,1111122' 
COMPS,ioos:station:USF.COMPS:SHP:1,2019-02-01T04:24:00Z,30.0600,-84.2910,10.0,1.44,48.85,3.72,'1111122,1111122,1111122' 
COMPS,ioos:station:USF.COMPS:SHP:1,2019-02-01T04:30:00Z,30.0600,-84.2910,10.0,2.02,51.96,4.31,'1111122,1111122,1111122' 
COMPS,ioos:station:USF.COMPS:SHP:1,2019-02-01T04:36:00Z,30.0600,-84.2910,10.0,1.45,49.11,3.13,'1111122,1111122,1111122' 
COMPS,ioos:station:USF.COMPS:SHP:1,2019-02-01T04:42:00Z,30.0600,-84.2910,10.0,1.39,39.5,2.64,'1111122,1111122,1111122' 
COMPS,ioos:station:USF.COMPS:SHP:1,2019-02-01T04:48:00Z,30.0600,-84.2910,10.0,0.98,60.28,3.13,'1111122,1111122,1111122' 
COMPS,ioos:station:USF.COMPS:SHP:1,2019-02-01T04:54:00Z,30.0600,-84.2910,10.0,0.95,66.91,2.25,'1111122,1111122,1111122' 
COMPS,ioos:station:USF.COMPS:SHP:1,2019-02-01T05:00:00Z,30.0600,-84.2910,10.0,1.04,63.08,2.25,'1111122,1111122,1111122' 
COMPS,ioos:station:USF.COMPS:SHP:1,2019-02-01T05:06:00Z,30.0600,-84.2910,10.0,1.4,57.26,4.01,'1111122,1111122,1111122' 
COMPS,ioos:station:USF.COMPS:SHP:1,2019-02-01T05:12:00Z,30.0600,-84.2910,10.0,1.3,65.41,3.13,'1111122,1111122,1111122' 
COMPS,ioos:station:USF.COMPS:SHP:1,2019-02-01T05:18:00Z,30.0600,-84.2910,10.0,1.33,65.25,3.52,'1111122,1111122,1111122' 
COMPS,ioos:station:USF.COMPS:SHP:1,2019-02-01T05:24:00Z,30.0600,-84.2910,10.0,1.21,51.31,2.45,'1111122,1111122,1111122' 
COMPS,ioos:station:USF.COMPS:SHP:1,2019-02-01T05:30:00Z,30.0600,-84.2910,10.0,1.14,52.66,2.54,'1111122,1111122,1111122' 
COMPS,ioos:station:USF.COMPS:SHP:1,2019-02-01T05:36:00Z,30.0600,-84.2910,10.0,1.06,48.89,2.64,'1111122,1111122,1111122' 
COMPS,ioos:station:USF.COMPS:SHP:1,2019-02-01T05:42:00Z,30.0600,-84.2910,10.0,1.63,64.53,2.94,'1111122,1111122,1111122' 
COMPS,ioos:station:USF.COMPS:SHP:1,2019-02-01T05:48:00Z,30.0600,-84.2910,10.0,1.91,61.29,4.11,'1111122,1111122,1111122' 
COMPS,ioos:station:USF.COMPS:SHP:1,2019-02-01T05:54:00Z,30.0600,-84.2910,10.0,1.57,63.8,3.52,'1111122,1111122,1111122' 
COMPS,ioos:station:USF.COMPS:SHP:1,2019-02-01T06:00:00Z,30.0600,-84.2910,10.0,1.69,50.56,4.31,'1111122,1111122,1111122' 
COMPS,ioos:station:USF.COMPS:SHP:1,2019-02-01T06:06:00Z,30.0600,-84.2910,10.0,1.12,55.59,3.92,'1111122,1111122,1111122' 
COMPS,ioos:station:USF.COMPS:SHP:1,2019-02-01T06:12:00Z,30.0600,-84.2910,10.0,1.32,55.44,3.23,'1111122,1111122,1111122' 
COMPS,ioos:station:USF.COMPS:SHP:1,2019-02-01T06:18:00Z,30.0600,-84.2910,10.0,1.34,44.41,3.92,'1111122,1111122,1111122' 
COMPS,ioos:station:USF.COMPS:SHP:1,2019-02-01T06:24:00Z,30.0600,-84.2910,10.0,1.66,54.36,3.23,'1111122,1111122,1111122' 
COMPS,ioos:station:USF.COMPS:SHP:1,2019-02-01T06:30:00Z,30.0600,-84.2910,10.0,1.6,60.86,3.52,'1111122,1111122,1111122' 
COMPS,ioos:station:USF.COMPS:SHP:1,2019-02-01T06:36:00Z,30.0600,-84.2910,10.0,1.35,61.81,3.62,'1111122,1111122,1111122' 
COMPS,ioos:station:USF.COMPS:SHP:1,2019-02-01T06:42:00Z,30.0600,-84.2910,10.0,1.45,59.01,3.33,'1111122,1111122,1111122' 
COMPS,ioos:station:USF.COMPS:SHP:1,2019-02-01T06:48:00Z,30.0600,-84.2910,10.0,1.38,49.27,3.23,'1111122,1111122,1111122' 
COMPS,ioos:station:USF.COMPS:SHP:1,2019-02-01T06:54:00Z,30.0600,-84.2910,10.0,1.18,56.43,2.84,'1111122,1111122,1111122' 
COMPS,ioos:station:USF.COMPS:SHP:1,2019-02-01T07:00:00Z,30.0600,-84.2910,10.0,1.56,71.29,3.13,'1111122,1111122,1111122' 
COMPS,ioos:station:USF.COMPS:SHP:1,2019-02-01T07:06:00Z,30.0600,-84.2910,10.0,1.52,66.84,3.13,'1111122,1111122,1111122' 
COMPS,ioos:station:USF.COMPS:SHP:1,2019-02-01T07:12:00Z,30.0600,-84.2910,10.0,1.27,55.15,3.33,'1111122,1111122,1111122' 
COMPS,ioos:station:USF.COMPS:SHP:1,2019-02-01T07:18:00Z,30.0600,-84.2910,10.0,1.57,47.41,3.03,'1111122,1111122,1111122' 
COMPS,ioos:station:USF.COMPS:SHP:1,2019-02-01T07:24:00Z,30.0600,-84.2910,10.0,1.39,53.4,2.45,'1111122,1111122,1111122' 
COMPS,ioos:station:USF.COMPS:SHP:1,2019-02-01T07:30:00Z,30.0600,-84.2910,10.0,1.17,44.67,3.82,'1111122,1111122,1111122' 
COMPS,ioos:station:USF.COMPS:SHP:1,2019-02-01T07:36:00Z,30.0600,-84.2910,10.0,1.72,52.54,3.33,'1111122,1111122,1111122' 
COMPS,ioos:station:USF.COMPS:SHP:1,2019-02-01T07:42:00Z,30.0600,-84.2910,10.0,1.39,58.11,2.54,'1111122,1111122,1111122' 
COMPS,ioos:station:USF.COMPS:SHP:1,2019-02-01T07:48:00Z,30.0600,-84.2910,10.0,1.43,56.78,2.94,'1111122,1111122,1111122' 
COMPS,ioos:station:USF.COMPS:SHP:1,2019-02-01T07:54:00Z,30.0600,-84.2910,10.0,1.28,59.19,2.94,'1111122,1111122,1111122' 
COMPS,ioos:station:USF.COMPS:SHP:1,2019-02-01T08:00:00Z,30.0600,-84.2910,10.0,1.38,54.82,2.74,'1111122,1111122,1111122' 
COMPS,ioos:station:USF.COMPS:SHP:1,2019-02-01T08:06:00Z,30.0600,-84.2910,10.0,1.57,58.0,3.23,'1111122,1111122,1111122' 
COMPS,ioos:station:USF.COMPS:SHP:1,2019-02-01T08:12:00Z,30.0600,-84.2910,10.0,1.47,47.95,3.82,'1111122,1111122,1111122' 
COMPS,ioos:station:USF.COMPS:SHP:1,2019-02-01T08:18:00Z,30.0600,-84.2910,10.0,2.25,47.77,4.7,'1111122,1111122,1111122' 
COMPS,ioos:station:USF.COMPS:SHP:1,2019-02-01T08:24:00Z,30.0600,-84.2910,10.0,1.71,46.58,3.52,'1111122,1111122,1111122' 
COMPS,ioos:station:USF.COMPS:SHP:1,2019-02-01T08:30:00Z,30.0600,-84.2910,10.0,1.87,42.18,3.13,'1111122,1111122,1111122' 
COMPS,ioos:station:USF.COMPS:SHP:1,2019-02-01T08:36:00Z,30.0600,-84.2910,10.0,1.16,27.95,2.05,'1111122,1111122,1111122' 
COMPS,ioos:station:USF.COMPS:SHP:1,2019-02-01T08:42:00Z,30.0600,-84.2910,10.0,1.44,41.42,2.64,'1111122,1111122,1111122' 
COMPS,ioos:station:USF.COMPS:SHP:1,2019-02-01T08:48:00Z,30.0600,-84.2910,10.0,2.08,46.25,3.33,'1111122,1111122,1111122' 
COMPS,ioos:station:USF.COMPS:SHP:1,2019-02-01T08:54:00Z,30.0600,-84.2910,10.0,1.66,49.77,4.31,'1111122,1111122,1111122' 
COMPS,ioos:station:USF.COMPS:SHP:1,2019-02-01T09:00:00Z,30.0600,-84.2910,10.0,1.28,44.81,3.03,'1111122,1111122,1111122' 
COMPS,ioos:station:USF.COMPS:SHP:1,2019-02-01T09:06:00Z,30.0600,-84.2910,10.0,1.56,56.56,2.94,'1111122,1111122,1111122' 
COMPS,ioos:station:USF.COMPS:SHP:1,2019-02-01T09:12:00Z,30.0600,-84.2910,10.0,2.0,57.68,4.11,'1111122,1111122,1111122' 
COMPS,ioos:station:USF.COMPS:SHP:1,2019-02-01T09:18:00Z,30.0600,-84.2910,10.0,1.74,58.07,3.72,'1111122,1111122,1111122' 
COMPS,ioos:station:USF.COMPS:SHP:1,2019-02-01T09:24:00Z,30.0600,-84.2910,10.0,1.52,52.49,3.23,'1111122,1111122,1111122' 
COMPS,ioos:station:USF.COMPS:SHP:1,2019-02-01T09:30:00Z,30.0600,-84.2910,10.0,1.37,44.55,4.11,'1111122,1111122,1111122' 
COMPS,ioos:station:USF.COMPS:SHP:1,2019-02-01T09:36:00Z,30.0600,-84.2910,10.0,1.27,45.17,3.52,'1111122,1111122,1111122' 
COMPS,ioos:station:USF.COMPS:SHP:1,2019-02-01T09:42:00Z,30.0600,-84.2910,10.0,2.31,48.24,5.19,'1111122,1111122,1111122' 
COMPS,ioos:station:USF.COMPS:SHP:1,2019-02-01T09:48:00Z,30.0600,-84.2910,10.0,1.81,48.53,3.13,'1111122,1111122,1111122' 
COMPS,ioos:station:USF.COMPS:SHP:1,2019-02-01T09:54:00Z,30.0600,-84.2910,10.0,1.48,43.48,2.94,'1111122,1111122,1111122' 
COMPS,ioos:station:USF.COMPS:SHP:1,2019-02-01T10:00:00Z,30.0600,-84.2910,10.0,1.84,41.46,3.23,'1111122,1111122,1111122' 
COMPS,ioos:station:USF.COMPS:SHP:1,2019-02-01T10:06:00Z,30.0600,-84.2910,10.0,1.85,54.58,3.33,'1111122,1111122,1111122' 
COMPS,ioos:station:USF.COMPS:SHP:1,2019-02-01T10:12:00Z,30.0600,-84.2910,10.0,1.79,54.3,3.52,'1111122,1111122,1111122' 
COMPS,ioos:station:USF.COMPS:SHP:1,2019-02-01T10:18:00Z,30.0600,-84.2910,10.0,1.62,57.73,3.33,'1111122,1111122,1111122' 
COMPS,ioos:station:USF.COMPS:SHP:1,2019-02-01T10:24:00Z,30.0600,-84.2910,10.0,1.68,50.92,3.43,'1111122,1111122,1111122' 
COMPS,ioos:station:USF.COMPS:SHP:1,2019-02-01T10:30:00Z,30.0600,-84.2910,10.0,1.75,50.09,3.52,'1111122,1111122,1111122' 
COMPS,ioos:station:USF.COMPS:SHP:1,2019-02-01T10:36:00Z,30.0600,-84.2910,10.0,1.53,56.09,3.72,'1111122,1111122,1111122' 
COMPS,ioos:station:USF.COMPS:SHP:1,2019-02-01T10:42:00Z,30.0600,-84.2910,10.0,1.45,68.76,2.84,'1111122,1111122,1111122' 
COMPS,ioos:station:USF.COMPS:SHP:1,2019-02-01T10:48:00Z,30.0600,-84.2910,10.0,1.57,59.43,3.52,'1111122,1111122,1111122' 
COMPS,ioos:station:USF.COMPS:SHP:1,2019-02-01T10:54:00Z,30.0600,-84.2910,10.0,1.22,61.18,2.64,'1111122,1111122,1111122' 
COMPS,ioos:station:USF.COMPS:SHP:1,2019-02-01T11:00:00Z,30.0600,-84.2910,10.0,1.61,47.37,3.43,'1111122,1111122,1111122' 
COMPS,ioos:station:USF.COMPS:SHP:1,2019-02-01T11:06:00Z,30.0600,-84.2910,10.0,1.44,49.44,2.64,'1111122,1111122,1111122' 
COMPS,ioos:station:USF.COMPS:SHP:1,2019-02-01T11:12:00Z,30.0600,-84.2910,10.0,1.18,51.76,2.84,'1111122,1111122,1111122' 
COMPS,ioos:station:USF.COMPS:SHP:1,2019-02-01T11:18:00Z,30.0600,-84.2910,10.0,1.25,47.15,2.64,'1111122,1111122,1111122' 
COMPS,ioos:station:USF.COMPS:SHP:1,2019-02-01T11:24:00Z,30.0600,-84.2910,10.0,1.63,47.53,3.33,'1111122,1111122,1111122' 
COMPS,ioos:station:USF.COMPS:SHP:1,2019-02-01T11:30:00Z,30.0600,-84.2910,10.0,1.58,50.37,3.43,'1111122,1111122,1111122' 
COMPS,ioos:station:USF.COMPS:SHP:1,2019-02-01T11:36:00Z,30.0600,-84.2910,10.0,1.57,55.71,3.92,'1111122,1111122,1111122' 
COMPS,ioos:station:USF.COMPS:SHP:1,2019-02-01T11:42:00Z,30.0600,-84.2910,10.0,1.52,49.39,3.13,'1111122,1111122,1111122' 
COMPS,ioos:station:USF.COMPS:SHP:1,2019-02-01T11:48:00Z,30.0600,-84.2910,10.0,1.56,45.4,3.03,'1111122,1111122,1111122' 
COMPS,ioos:station:USF.COMPS:SHP:1,2019-02-01T11:54:00Z,30.0600,-84.2910,10.0,1.65,43.39,4.01,'1111122,1111122,1111122' 
COMPS,ioos:station:USF.COMPS:SHP:1,2019-02-01T12:00:00Z,30.0600,-84.2910,10.0,1.7,45.59,3.43,'1111122,1111122,1111122' 
COMPS,ioos:station:USF.COMPS:SHP:1,2019-02-01T12:06:00Z,30.0600,-84.2910,10.0,1.57,46.78,3.62,'1111122,1111122,1111122' 
COMPS,ioos:station:USF.COMPS:SHP:1,2019-02-01T12:12:00Z,30.0600,-84.2910,10.0,1.57,48.02,3.23,'1111122,1111122,1111122' 
COMPS,ioos:station:USF.COMPS:SHP:1,2019-02-01T12:18:00Z,30.0600,-84.2910,10.0,1.68,40.96,3.92,'1111122,1111122,1111122' 
COMPS,ioos:station:USF.COMPS:SHP:1,2019-02-01T12:24:00Z,30.0600,-84.2910,10.0,1.9,51.9,4.11,'1111122,1111122,1111122' 
COMPS,ioos:station:USF.COMPS:SHP:1,2019-02-01T12:30:00Z,30.0600,-84.2910,10.0,1.37,47.87,3.43,'1111122,1111122,1111122' 
COMPS,ioos:station:USF.COMPS:SHP:1,2019-02-01T12:36:00Z,30.0600,-84.2910,10.0,1.88,55.21,3.43,'1111122,1111122,1111122' 
COMPS,ioos:station:USF.COMPS:SHP:1,2019-02-01T12:42:00Z,30.0600,-84.2910,10.0,1.4,48.2,3.62,'1111122,1111122,1111122' 
COMPS,ioos:station:USF.COMPS:SHP:1,2019-02-01T12:48:00Z,30.0600,-84.2910,10.0,1.81,59.0,3.62,'1111122,1111122,1111122' 
COMPS,ioos:station:USF.COMPS:SHP:1,2019-02-01T12:54:00Z,30.0600,-84.2910,10.0,1.26,55.05,3.72,'1111122,1111122,1111122' 
COMPS,ioos:station:USF.COMPS:SHP:1,2019-02-01T13:00:00Z,30.0600,-84.2910,10.0,1.63,44.85,3.43,'1111122,1111122,1111122' 
COMPS,ioos:station:USF.COMPS:SHP:1,2019-02-01T13:06:00Z,30.0600,-84.2910,10.0,1.86,48.85,5.68,'1111122,1111122,1111122' 
COMPS,ioos:station:USF.COMPS:SHP:1,2019-02-01T13:12:00Z,30.0600,-84.2910,10.0,1.97,50.66,4.21,'1111122,1111122,1111122' 
COMPS,ioos:station:USF.COMPS:SHP:1,2019-02-01T13:18:00Z,30.0600,-84.2910,10.0,1.56,54.08,4.8,'1111122,1111122,1111122' 
COMPS,ioos:station:USF.COMPS:SHP:1,2019-02-01T13:24:00Z,30.0600,-84.2910,10.0,1.31,42.83,3.72,'1111122,1111122,1111122' 
COMPS,ioos:station:USF.COMPS:SHP:1,2019-02-01T13:30:00Z,30.0600,-84.2910,10.0,2.45,51.91,4.21,'1111122,1111122,1111122' 
COMPS,ioos:station:USF.COMPS:SHP:1,2019-02-01T13:36:00Z,30.0600,-84.2910,10.0,1.86,46.57,4.11,'1111122,1111122,1111122' 
COMPS,ioos:station:USF.COMPS:SHP:1,2019-02-01T13:42:00Z,30.0600,-84.2910,10.0,1.75,39.56,4.6,'1111122,1111122,1111122' 
COMPS,ioos:station:USF.COMPS:SHP:1,2019-02-01T13:48:00Z,30.0600,-84.2910,10.0,1.99,40.61,4.7,'1111122,1111122,1111122' 
COMPS,ioos:station:USF.COMPS:SHP:1,2019-02-01T13:54:00Z,30.0600,-84.2910,10.0,1.86,40.77,4.7,'1111122,1111122,1111122' 
COMPS,ioos:station:USF.COMPS:SHP:1,2019-02-01T14:00:00Z,30.0600,-84.2910,10.0,1.96,49.08,4.8,'1111122,1111122,1111122' 
COMPS,ioos:station:USF.COMPS:SHP:1,2019-02-01T14:06:00Z,30.0600,-84.2910,10.0,1.3,46.07,3.52,'1111122,1111122,1111122' 
COMPS,ioos:station:USF.COMPS:SHP:1,2019-02-01T14:12:00Z,30.0600,-84.2910,10.0,1.87,54.49,3.62,'1111122,1111122,1111122' 
COMPS,ioos:station:USF.COMPS:SHP:1,2019-02-01T14:18:00Z,30.0600,-84.2910,10.0,1.78,59.96,3.43,'1111122,1111122,1111122' 
COMPS,ioos:station:USF.COMPS:SHP:1,2019-02-01T14:24:00Z,30.0600,-84.2910,10.0,1.98,57.69,3.92,'1111122,1111122,1111122' 
COMPS,ioos:station:USF.COMPS:SHP:1,2019-02-01T14:30:00Z,30.0600,-84.2910,10.0,1.49,53.21,3.33,'1111122,1111122,1111122' 
COMPS,ioos:station:USF.COMPS:SHP:1,2019-02-01T14:36:00Z,30.0600,-84.2910,10.0,1.67,56.94,3.33,'1111122,1111122,1111122' 
COMPS,ioos:station:USF.COMPS:SHP:1,2019-02-01T14:42:00Z,30.0600,-84.2910,10.0,1.18,54.75,3.33,'1111122,1111122,1111122' 
COMPS,ioos:station:USF.COMPS:SHP:1,2019-02-01T14:48:00Z,30.0600,-84.2910,10.0,1.37,61.59,3.23,'1111122,1111122,1111122' 
COMPS,ioos:station:USF.COMPS:SHP:1,2019-02-01T14:54:00Z,30.0600,-84.2910,10.0,2.01,59.03,3.52,'1111122,1111122,1111122' 
COMPS,ioos:station:USF.COMPS:SHP:1,2019-02-01T15:00:00Z,30.0600,-84.2910,10.0,1.88,50.91,3.62,'1111122,1111122,1111122' 
COMPS,ioos:station:USF.COMPS:SHP:1,2019-02-01T15:06:00Z,30.0600,-84.2910,10.0,1.95,60.03,3.92,'1111122,1111122,1111122' 
COMPS,ioos:station:USF.COMPS:SHP:1,2019-02-01T15:12:00Z,30.0600,-84.2910,10.0,1.83,55.34,3.52,'1111122,1111122,1111122' 
COMPS,ioos:station:USF.COMPS:SHP:1,2019-02-01T15:18:00Z,30.0600,-84.2910,10.0,2.03,50.02,4.9,'1111122,1111122,1111122' 
COMPS,ioos:station:USF.COMPS:SHP:1,2019-02-01T15:24:00Z,30.0600,-84.2910,10.0,2.47,44.38,6.56,'1111122,1111122,1111122' 
COMPS,ioos:station:USF.COMPS:SHP:1,2019-02-01T15:30:00Z,30.0600,-84.2910,10.0,3.04,40.28,5.78,'1111122,1111122,1111122' 
COMPS,ioos:station:USF.COMPS:SHP:1,2019-02-01T15:36:00Z,30.0600,-84.2910,10.0,2.66,43.21,5.29,'1111122,1111122,1111122' 
COMPS,ioos:station:USF.COMPS:SHP:1,2019-02-01T15:42:00Z,30.0600,-84.2910,10.0,2.7,32.67,3.92,'1111122,1111122,1111122' 
COMPS,ioos:station:USF.COMPS:SHP:1,2019-02-01T15:48:00Z,30.0600,-84.2910,10.0,2.0,43.53,4.41,'1111122,1111122,1111122' 
COMPS,ioos:station:USF.COMPS:SHP:1,2019-02-01T15:54:00Z,30.0600,-84.2910,10.0,2.36,43.02,3.62,'1111122,1111122,1111122' 
COMPS,ioos:station:USF.COMPS:SHP:1,2019-02-01T16:00:00Z,30.0600,-84.2910,10.0,1.72,46.29,4.21,'1111122,1111122,1111122' 
COMPS,ioos:station:USF.COMPS:SHP:1,2019-02-01T16:06:00Z,30.0600,-84.2910,10.0,2.17,42.58,4.11,'1111122,1111122,1111122' 
COMPS,ioos:station:USF.COMPS:SHP:1,2019-02-01T16:12:00Z,30.0600,-84.2910,10.0,1.79,54.82,4.21,'1111122,1111122,1111122' 
COMPS,ioos:station:USF.COMPS:SHP:1,2019-02-01T16:18:00Z,30.0600,-84.2910,10.0,1.15,48.36,3.82,'1111122,1111122,1111122' 
COMPS,ioos:station:USF.COMPS:SHP:1,2019-02-01T16:24:00Z,30.0600,-84.2910,10.0,2.33,52.52,4.21,'1111122,1111122,1111122' 
COMPS,ioos:station:USF.COMPS:SHP:1,2019-02-01T16:30:00Z,30.0600,-84.2910,10.0,1.96,59.27,4.21,'1111122,1111122,1111122' 
COMPS,ioos:station:USF.COMPS:SHP:1,2019-02-01T16:36:00Z,30.0600,-84.2910,10.0,2.13,48.98,3.92,'1111122,1111122,1111122' 
COMPS,ioos:station:USF.COMPS:SHP:1,2019-02-01T16:42:00Z,30.0600,-84.2910,10.0,1.79,44.24,3.62,'1111122,1111122,1111122' 
COMPS,ioos:station:USF.COMPS:SHP:1,2019-02-01T16:48:00Z,30.0600,-84.2910,10.0,1.49,54.69,3.92,'1111122,1111122,1111122' 
COMPS,ioos:station:USF.COMPS:SHP:1,2019-02-01T16:54:00Z,30.0600,-84.2910,10.0,1.79,39.71,3.82,'1111122,1111122,1111122' 
COMPS,ioos:station:USF.COMPS:SHP:1,2019-02-01T17:00:00Z,30.0600,-84.2910,10.0,1.54,45.38,2.64,'1111122,1111122,1111122' 
COMPS,ioos:station:USF.COMPS:SHP:1,2019-02-01T17:06:00Z,30.0600,-84.2910,10.0,1.91,36.48,3.72,'1111122,1111122,1111122' 
COMPS,ioos:station:USF.COMPS:SHP:1,2019-02-01T17:12:00Z,30.0600,-84.2910,10.0,2.3,39.18,3.62,'1111122,1111122,1111122' 
COMPS,ioos:station:USF.COMPS:SHP:1,2019-02-01T17:18:00Z,30.0600,-84.2910,10.0,2.01,32.52,4.11,'1111122,1111122,1111122' 
COMPS,ioos:station:USF.COMPS:SHP:1,2019-02-01T17:24:00Z,30.0600,-84.2910,10.0,2.6,43.95,4.31,'1111122,1111122,1111122' 
COMPS,ioos:station:USF.COMPS:SHP:1,2019-02-01T17:30:00Z,30.0600,-84.2910,10.0,2.48,39.79,4.11,'1111122,1111122,1111122' 
COMPS,ioos:station:USF.COMPS:SHP:1,2019-02-01T17:36:00Z,30.0600,-84.2910,10.0,2.35,45.78,5.39,'1111122,1111122,1111122' 
COMPS,ioos:station:USF.COMPS:SHP:1,2019-02-01T17:42:00Z,30.0600,-84.2910,10.0,2.78,41.09,5.58,'1111122,1111122,1111122' 
COMPS,ioos:station:USF.COMPS:SHP:1,2019-02-01T17:48:00Z,30.0600,-84.2910,10.0,3.32,41.54,5.09,'1111122,1111122,1111122' 
COMPS,ioos:station:USF.COMPS:SHP:1,2019-02-01T17:54:00Z,30.0600,-84.2910,10.0,2.62,41.29,4.99,'1111122,1111122,1111122' 
COMPS,ioos:station:USF.COMPS:SHP:1,2019-02-01T18:00:00Z,30.0600,-84.2910,10.0,2.52,47.37,4.6,'1111122,1111122,1111122' 
COMPS,ioos:station:USF.COMPS:SHP:1,2019-02-01T18:06:00Z,30.0600,-84.2910,10.0,2.92,44.41,4.99,'1111122,1111122,1111122' 
COMPS,ioos:station:USF.COMPS:SHP:1,2019-02-01T18:12:00Z,30.0600,-84.2910,10.0,2.79,45.58,4.9,'1111122,1111122,1111122' 
COMPS,ioos:station:USF.COMPS:SHP:1,2019-02-01T18:18:00Z,30.0600,-84.2910,10.0,2.31,42.21,4.8,'1111122,1111122,1111122' 
COMPS,ioos:station:USF.COMPS:SHP:1,2019-02-01T18:24:00Z,30.0600,-84.2910,10.0,2.16,45.1,4.99,'1111122,1111122,1111122' 
COMPS,ioos:station:USF.COMPS:SHP:1,2019-02-01T18:30:00Z,30.0600,-84.2910,10.0,2.63,42.05,5.68,'1111122,1111122,1111122' 
COMPS,ioos:station:USF.COMPS:SHP:1,2019-02-01T18:36:00Z,30.0600,-84.2910,10.0,3.0,39.21,4.21,'1111122,1111122,1111122' 
COMPS,ioos:station:USF.COMPS:SHP:1,2019-02-01T18:42:00Z,30.0600,-84.2910,10.0,2.59,36.63,4.8,'1111122,1111122,1111122' 
COMPS,ioos:station:USF.COMPS:SHP:1,2019-02-01T18:48:00Z,30.0600,-84.2910,10.0,2.56,30.8,4.31,'1111122,1111122,1111122' 
COMPS,ioos:station:USF.COMPS:SHP:1,2019-02-01T18:54:00Z,30.0600,-84.2910,10.0,2.78,36.8,4.7,'1111122,1111122,1111122' 
COMPS,ioos:station:USF.COMPS:SHP:1,2019-02-01T19:00:00Z,30.0600,-84.2910,10.0,2.6,36.58,4.41,'1111122,1111122,1111122' 
COMPS,ioos:station:USF.COMPS:SHP:1,2019-02-01T19:06:00Z,30.0600,-84.2910,10.0,1.71,33.56,3.03,'1111122,1111122,1111122' 
COMPS,ioos:station:USF.COMPS:SHP:1,2019-02-01T19:12:00Z,30.0600,-84.2910,10.0,2.39,42.15,4.11,'1111122,1111122,1111122' 
COMPS,ioos:station:USF.COMPS:SHP:1,2019-02-01T19:18:00Z,30.0600,-84.2910,10.0,2.09,40.3,4.01,'1111122,1111122,1111122' 
COMPS,ioos:station:USF.COMPS:SHP:1,2019-02-01T19:24:00Z,30.0600,-84.2910,10.0,1.7,40.44,3.52,'1111122,1111122,1111122' 
COMPS,ioos:station:USF.COMPS:SHP:1,2019-02-01T19:30:00Z,30.0600,-84.2910,10.0,2.05,43.92,3.62,'1111122,1111122,1111122' 
COMPS,ioos:station:USF.COMPS:SHP:1,2019-02-01T19:36:00Z,30.0600,-84.2910,10.0,1.9,46.73,4.01,'1111122,1111122,1111122' 